Location: Anumalkud?ru
(16.4847°N, 80.6636°E)
Time: 11:50:59
(UTC+00:00)

ARIANE 5 R/B - Pass Details

Date: 11 April 2026
Orbit: 520 x 17421 km, 6.7° (Epoch: 20 May)

Event Time Altitude Azimuth Distance (km) Brightness Sun altitude
Exits shadow 23:32:39 14° 217° (SW) 1,527 3.1 -13.0°
Maximum altitude 23:34:28 20° 176° (S) 1,243 3.0 -12.6°
Drops below altitude 10° 23:37:18 10° 125° (SE) 1,979 4.8 -11.9°
Sets 23:40:47 0° 107° (ESE) 3,535 6.6 -11.1°
